Home > Weather > Madison > Past weeks

Flag for USA Weather for the Past 2 Weeks in Madison, Wisconsin, USA

Now
51 °F

Overcast.


Feels Like: 49 °F
Forecast: 35 / 55 °F
Wind: 6 mph from East

Location: Dane County Regional-Truax Field

Current Time: Apr 29, 2016 at 5:35:49 PM

Latest Report: Apr 29, 2016 at 3:53 PM


Visibility: 10 mi

Pressure: 30.13 "Hg

Humidity: 61%

Dew Point: 38 °F

Location of MadisonLocation

Historic Weather in Madison — Graph

°F

Madison Temperature Yesterday

Maximum temperature yesterday: 44 °F (at 2:53 AM)
Minimum temperature yesterday: 39 °F (at 9:53 PM)
Average temperature yesterday: 41 °F

High & Low Weather Summary for the Past Weeks

 TemperatureHumidityPressure
High79 °F (Apr 17, 2:53 PM)97% (Apr 26, 6:53 AM)30.40 "Hg (Apr 26, 6:53 AM)
Low35 °F (Apr 23, 5:53 AM)26% (Apr 18, 4:53 PM)29.57 "Hg (Apr 25, 4:53 PM)
Average54 °F64%30.05 "Hg
* Reported Apr 14 3:53 PM — Apr 29 3:53 PM, Madison, Weather by CustomWeather, © 2016

Note: Actual official high and low records may vary slightly from our data, if they occured in-between our weather recording intervals... More about our weather records

Advertising

Madison Weather History for the Previous 24 Hours

Scroll right to see more
 ConditionsComfort  
Time TempWeatherWind HumidityBarometerVisibility
3:53 PM
Fri, Apr 29
51 °FOvercast.6 mph61%30.13 "Hg10 mi
2:53 PM51 °FOvercast.12 mph61%30.12 "Hg10 mi
1:53 PM52 °FPartly sunny.13 mph61%30.11 "Hg10 mi
12:53 PM49 °FMostly cloudy.10 mph66%30.14 "Hg10 mi
11:53 AM46 °FOvercast.13 mph71%30.12 "Hg10 mi
10:53 AM46 °FMostly cloudy.12 mph73%30.14 "Hg10 mi
9:53 AM44 °FOvercast.12 mph76%30.12 "Hg10 mi
8:53 AM43 °FPartly sunny.10 mph82%30.11 "Hg10 mi
7:53 AM40 °FBroken clouds.5 mph89%30.14 "Hg10 mi
6:53 AM39 °FFog.5 mph93%30.13 "Hg6 mi
5:53 AM39 °FOvercast.6 mph89%30.11 "Hg10 mi
4:53 AM39 °FOvercast.9 mph93%30.09 "Hg10 mi
4:00 AM39 °FMostly cloudy.3 mph96%30.07 "Hg7 mi
3:01 AM39 °FLight rain. Overcast.3 mph96%30.06 "Hg9 mi
1:53 AM39 °FRain. Fog.5 mph96%30.08 "Hg2 mi
12:53 AM40 °FLow clouds.5 mph93%30.07 "Hg8 mi
11:53 PM
Thu, Apr 28
39 °FLow clouds.6 mph96%30.06 "Hg7 mi
10:53 PM39 °FMostly cloudy.7 mph93%30.06 "Hg8 mi
9:53 PM39 °FLight rain. Fog.7 mph93%30.07 "Hg4 mi
8:53 PM40 °FOvercast.8 mph89%30.06 "Hg10 mi
7:53 PM40 °FOvercast.7 mph86%30.03 "Hg10 mi
6:53 PM40 °FLow clouds.8 mph86%30.02 "Hg10 mi
5:53 PM40 °FLow clouds.9 mph89%30.01 "Hg10 mi
Weather by CustomWeather, © 2016

See weather overviewHow to use our weather pages